Location: Quedlinburg
(51.7921°N, 11.1414°E)
Time: 09:07:33
(UTC+02:00)

RS-44 - Pass Details

Date: 16 March 2026
Orbit: 1175 x 1510 km, 82.5° (Epoch: 17 April)

Event Time Altitude Azimuth Distance (km) Brightness Sun altitude
Rises 00:44:48 0° 349° (N) 4,355 ? -39.8°
Reaches altitude 10° 00:48:08 10° 2° (N) 3,433 ? -39.8°
Maximum altitude 00:54:56 27° 58° (ENE) 2,444 ? -39.6°
Enters shadow 00:59:11 19° 98° (E) 2,934 ? -39.5°
